Content
SEND FEEDBACK

Daily
Averages
Monthly
Summary
United States of America

DINOSAUR NATIONAL MONUMENT, UTAH


Home > North America > United States > Utah
Elevation: 4818 feet     Latitude: 40 26N     Longitude: 109 18W

WEATHER
 
SELECT A DAY
Number of Records: 166,294;   Date Range: 1/1/95 - 7/7/14
 
SHARE

PRINT THIS DATA

[ ← Previous Day ]
WEATHER ALMANAC - JANUARY 23, 2013
[ Next Day → ]
[ °C ]   °F
Weather ElementAverageHighLow
Temperature2.5 °F10.9 °F (2:53 pm)-5.1 °F (6:53 am)
Dewpoint-2.7 °F1.9 °F (1:53 pm)-9.9 °F (6:53 am)
Humidity79.1 %88 % (8:53 am)67 % (2:53 pm)
Barometer30.72 in30.80 in (7:53 am)30.64 in (8:53 pm)
Wind Speed0.9 mph5.8 mph (10:53 am)
Weather ElementAverage
Visibility4.3 mi
Wind DirectionNNE (26.1 °)

Weather ElementTotal
Precipitation---
Heating Degree Days62.1 (Base 65)
Averaged from 23 records on January 23, 2013
WEATHER CONDITIONS BREAKOUT
WIND DIRECTION BREAKOUT
WEATHER BY HOUR - JANUARY 23, 2013
[ °C ]   °F
Local TimeTemperatureDewpointHumidityBarometerVisibilityWind DirectionWind SpeedGust SpeedPrecipitationEventsConditions
1:53 AM-4.0 °F-8.0 °F83 %30.74 in4.0 miCalmClear
2:53 AM-2.9 °F-8.0 °F79 %30.72 in5.0 miWNW (290°)3.5 mphHaze
3:53 AM-4.0 °F-9.0 °F79 %30.74 in5.0 miCalmHaze
4:53 AM-4.0 °F-8.0 °F83 %30.74 in4.0 miCalmClear
5:53 AM-4.0 °F-9.0 °F79 %30.77 in5.0 miCalmHaze
6:53 AM-5.1 °F-9.9 °F80 %30.79 in4.0 miCalmHaze
7:53 AM-5.1 °F-8.0 °F87 %30.80 in3.0 miCalmClear
8:53 AM0.0 °F-2.9 °F88 %30.78 in3.0 miCalmClear
9:53 AM3.9 °F0.0 °F84 %30.76 in3.0 miCalmClear
10:53 AM1.9 °F-4.0 °F76 %30.79 in4.0 miENE (70°)5.8 mphHaze
11:53 AM5.0 °F-0.9 °F76 %30.76 in4.0 miCalmHaze
12:53 PM7.0 °F0.0 °F73 %30.72 in4.0 miCalmHaze
1:53 PM10.0 °F1.9 °F70 %30.68 in5.0 miENE (70°)3.5 mphHaze
2:53 PM10.9 °F1.9 °F67 %30.66 in5.0 miCalmHaze
3:53 PM8.1 °F1.0 °F73 %30.68 in5.0 miEast (100°)3.5 mphHaze
4:53 PM8.1 °F1.0 °F73 %30.68 in4.0 miENE (70°)3.5 mphHaze
5:53 PM5.0 °F0.0 °F80 %30.69 in6.0 miCalmHaze
6:53 PM5.0 °F0.0 °F80 %30.69 in6.0 miCalmHaze
7:53 PM5.0 °F1.0 °F84 %30.68 in4.0 miCalmClear
8:53 PM7.0 °F1.0 °F77 %30.64 in4.0 miCalmHaze
9:53 PM3.9 °F0.0 °F84 %30.65 in3.0 miCalmClear
10:53 PM3.9 °F-0.9 °F80 %30.66 in4.0 miCalmHaze
11:53 PM3.0 °F-0.9 °F84 %30.65 in5.0 miCalmClear
Hourly data recorded from KVEL, located miles away from Dinosaur National Monument, Utah







STORIES FROM OUR PARTNERS